Location: Newark
(35.2672°N, 80.7344°W)
Time: 04:22:00
(UTC+00:00)

Tiros 1 - Pass Details

Date: 24 January 2020
Orbit: 631 x 664 km, 48.4° (Epoch: 19 February)

Event Time Altitude Azimuth Distance (km) Brightness Sun altitude
Rises 17:00:51 0° 213° (SSW) 2,912 11.1 34.9°
Reaches altitude 10° 17:03:14 10° 207° (SSW) 2,012 10.6 35.0°
Maximum altitude 17:07:36 42° 136° (SE) 908 9.2 35.1°
Drops below altitude 10° 17:12:02 10° 66° (ENE) 2,041 9.7 35.2°
Sets 17:14:28 0° 59° (ENE) 2,960 10.3 35.3°
